Wind_Speed
33 33 34 34 34 36 37 37 37 37 34 33 40 38 42 38 38 42 44 45 48 49 49 49 52 51 51 52 53 55 55 56 57 56 57 58 60 61 63 66 67 69 70 73
38 38 38 40 42 42 42 41 42 42 42 39 44 42 46 49 46 47 52 50 50 52 51 52 50 54 54 52 53 56 55 55 56 57 57 58 60 63 66 68 71 74 76 78
44 43 43 46 46 48 46 45 45 46 48 44 51 47 51 52 54 50 55 54 55 53 54 53 52 51 52 56 56 58 56 57 57 59 60 62 63 65 69 72 75 77 81 85
48 48 45 50 49 48 48 47 49 51 50 47 47 48 54 57 56 55 55 61 59 57 58 55 52 50 49 54 58 56 58 58 59 63 62 64 66 69 73 74 77 82 87 88
52 50 46 54 53 52 55 50 50 50 49 48 50 53 52 59 58 56 57 69 65 64 62 58 57 54 50 51 54 60 61 62 63 64 65 68 71 73 76 79 83 85 88 88
56 53 53 53 52 52 52 48 50 49 51 48 56 57 55 62 56 64 63 62 64 64 64 63 59 54 56 55 56 58 62 65 65 66 69 73 74 77 80 84 86 88 88 85
57 53 50 52 51 51 53 51 56 53 56 55 58 57 58 60 55 63 61 62 59 62 64 65 59 57 55 55 58 60 64 65 66 69 74 77 78 81 84 87 89 89 85 80
57 56 55 53 54 59 57 60 60 61 61 64 61 66 64 62 61 66 65 64 61 61 64 59 59 59 58 61 61 62 63 66 69 72 76 78 81 85 88 90 91 86 77 73
60 60 62 58 55 65 66 60 68 65 63 68 70 71 73 66 65 67 71 65 60 61 60 62 63 60 60 61 62 64 66 68 71 75 78 81 85 89 91 90 85 74 74 70
65 66 64 67 60 63 72 74 73 71 71 71 71 76 76 74 69 67 63 66 62 60 59 64 63 63 62 63 60 64 68 71 74 79 81 85 89 92 88 83 72 72 66 58
65 70 70 74 66 70 77 78 79 77 76 72 67 70 69 72 66 65 62 65 60 60 59 58 60 65 64 63 63 64 69 73 77 81 84 88 89 83 79 70 71 62 59 58
78 74 74 81 78 77 76 79 81 80 75 79 73 68 61 64 63 59 59 60 56 57 58 58 56 58 62 62 63 65 70 75 78 83 85 83 79 72 67 69 60 59 58 53
81 79 76 78 80 80 80 78 82 80 79 72 75 60 61 58 50 48 51 62 54 53 56 55 56 56 57 61 64 69 72 77 80 79 81 74 66 65 64 58 58 54 51 47
85 83 82 80 80 83 88 81 76 75 72 71 67 59 56 47 45 55 52 56 51 52 55 50 47 56 60 64 68 71 74 74 77 80 70 60 63 57 55 55 54 50 44 38
85 84 85 85 84 85 81 69 61 63 63 61 48 60 50 43 50 43 43 59 51 51 51 53 56 60 65 66 67 70 72 76 76 67 55 60 51 51 52 53 49 40 36 31
83 80 80 77 76 73 64 60 62 59 59 47 32 35 23 40 47 45 43 51 54 61 61 62 64 65 65 65 68 71 74 71 63 50 56 45 45 47 49 49 42 37 34 25
66 66 66 63 64 60 52 61 60 59 56 53 50 33 54 39 49 50 48 49 57 58 59 63 62 64 65 66 69 70 67 61 49 52 39 37 44 46 48 47 41 36 27 17
58 57 56 54 54 49 55 54 51 49 48 54 63 65 61 67 54 57 55 55 58 57 63 65 63 63 65 66 71 68 58 48 48 35 35 37 45 47 45 43 35 25 16 12
56 55 55 52 53 50 51 50 46 43 42 53 65 69 75 70 74 74 67 65 61 61 64 62 60 61 66 69 66 55 46 45 32 30 36 42 43 41 40 31 25 14 11 26
57 57 55 53 51 50 54 42 44 42 35 48 51 60 65 65 70 62 66 62 59 57 56 57 63 67 69 63 51 42 39 30 24 31 39 40 36 33 28 26 15 11 27 26
60 58 58 54 49 45 46 40 41 43 33 42 44 31 28 47 54 47 54 51 47 50 57 61 66 66 60 48 38 35 32 17 24 34 35 30 27 20 17 15 18 31 28 25
60 61 58 58 51 43 43 44 39 38 29 41 38 30 58 63 57 48 53 53 57 61 65 63 62 58 45 37 31 33 13 15 25 33 26 21 15 14 15 25 27 27 29 34
63 65 60 56 55 44 44 44 42 44 33 43 55 45 51 53 55 53 62 63 65 61 57 50 46 42 36 29 27 21 7 14 25 20 16 16 13 16 17 22 29 35 34 33
66 60 61 60 57 46 45 46 42 44 37 39 65 64 47 48 50 54 49 57 57 48 37 37 39 34 29 24 25 6 4 13 17 10 13 16 21 25 28 31 31 32 32 30
63 58 38 62 52 51 48 45 42 40 34 38 52 66 60 70 59 49 48 61 42 33 31 35 35 29 23 20 21 6 1 9 4 10 13 19 25 28 29 28 27 26 25 22
67 63 61 60 52 49 48 44 37 33 30 38 36 47 59 62 65 67 52 49 44 31 32 33 31 25 20 17 14 10 5 4 8 9 12 18 21 22 22 20 19 18 16 14
Wind_Direction
268 270 273 275 278 282 285 284 283 281 281 283 286 287 290 284 289 294 294 293 291 291 294 296 297 298 297 298 296 295 292 291 292 292 290 289 291 291 289 289 289 289 288 289
268 270 275 276 281 287 289 289 288 291 290 291 288 290 294 294 287 292 293 294 295 293 292 292 293 294 294 293 291 288 289 288 289 289 290 292 294 293 295 295 295 296 296 297
269 273 276 277 283 286 289 289 292 293 291 291 294 296 295 295 296 291 299 300 300 299 298 295 293 292 295 294 291 292 291 291 292 293 295 296 297 297 297 297 297 296 297 298
270 272 275 279 280 282 285 285 289 290 290 289 289 294 295 291 294 299 302 299 300 302 300 297 296 294 293 293 292 292 293 293 294 296 299 299 298 298 298 298 299 299 300 299
268 272 273 274 276 279 280 281 281 283 284 287 293 290 291 295 298 298 296 294 300 302 302 300 302 303 292 290 291 294 296 295 296 300 301 299 299 300 301 302 302 303 302 301
269 271 270 271 275 276 278 279 281 283 288 292 287 290 295 291 296 292 291 296 299 300 299 299 303 300 297 294 290 292 294 296 300 300 300 299 302 304 305 304 304 304 305 302
272 272 271 274 278 278 281 282 285 285 289 291 288 293 294 292 294 293 295 296 297 299 298 299 303 298 296 294 295 295 297 300 300 300 300 304 305 305 305 305 306 306 304 303
270 271 269 273 280 281 281 285 286 288 290 291 292 293 293 292 295 295 296 296 297 298 298 302 298 298 296 297 296 296 297 298 299 300 302 304 305 307 306 308 307 306 305 302
268 270 272 272 275 281 282 282 286 286 289 290 292 292 289 293 293 291 293 294 295 296 296 298 296 293 293 294 296 297 298 298 300 301 304 306 307 307 308 307 307 307 305 305
270 271 272 273 275 278 281 283 285 286 288 288 288 287 291 291 288 288 289 289 291 291 295 294 294 292 293 295 295 295 298 300 302 305 306 306 306 307 308 307 308 308 310 309
268 269 271 272 276 278 280 283 284 285 286 284 285 286 289 288 288 290 287 284 287 290 290 289 292 295 298 297 296 297 299 303 304 305 305 306 308 309 308 310 312 313 312 311
267 269 272 274 276 278 279 282 280 284 283 287 286 286 281 275 289 286 286 286 288 287 287 288 288 288 293 295 298 301 302 302 303 304 307 309 309 310 313 314 316 316 315 316
269 270 270 274 277 278 278 281 282 282 282 282 282 278 273 277 281 286 281 288 289 287 290 293 295 297 296 296 299 300 302 303 305 307 310 313 313 314 316 318 318 321 321 321
268 272 272 272 274 275 278 281 284 281 279 277 278 273 269 266 269 270 292 290 290 293 293 297 293 294 297 300 300 302 303 306 309 312 315 315 316 318 319 321 326 324 326 329
268 268 270 272 274 275 279 279 277 267 272 273 275 277 273 280 262 265 273 279 290 291 289 290 291 296 299 301 302 304 305 308 312 315 317 318 318 320 321 327 326 328 334 335
266 267 268 269 272 271 274 273 267 264 260 258 271 284 285 269 259 264 267 277 279 278 283 289 292 295 297 299 303 306 309 312 315 319 319 319 322 322 327 330 328 331 334 337
262 263 264 267 269 271 272 265 268 265 260 241 249 245 230 256 259 269 265 275 278 282 287 288 290 292 296 302 306 309 313 316 320 320 318 320 319 323 326 328 328 329 337 350
261 261 261 263 266 270 268 272 266 264 260 250 239 249 248 255 279 274 268 268 273 281 282 287 291 294 299 302 307 312 315 318 320 318 315 315 320 326 328 325 327 340 355 58
261 263 265 264 265 265 268 270 276 273 263 255 244 245 249 257 250 262 269 272 275 277 282 288 294 299 301 304 310 313 317 320 317 317 315 320 327 325 328 332 341 354 79 110
261 262 267 268 269 270 269 275 281 274 262 254 250 249 257 261 263 267 268 270 273 280 285 290 295 298 302 309 312 313 318 319 321 313 321 327 323 332 337 339 355 89 115 107
264 263 266 268 271 273 271 277 282 286 272 244 244 254 292 267 271 266 272 276 277 278 285 291 294 298 306 308 309 317 323 321 318 319 334 330 330 342 1 25 91 110 103 97
261 263 264 268 272 273 273 279 287 282 273 231 216 209 216 237 259 261 267 270 275 283 292 295 297 299 304 304 314 321 316 330 318 332 342 345 360 34 70 96 102 99 100 101
259 257 264 269 271 272 274 278 284 286 269 230 216 226 238 265 267 273 265 270 277 287 291 293 293 300 302 306 317 323 331 329 324 346 359 19 51 74 97 98 99 101 98 98
254 259 263 267 271 273 274 279 287 288 275 237 219 218 217 236 260 273 277 278 282 286 292 290 294 299 295 309 319 258 350 319 338 19 44 67 88 92 98 103 98 99 103 105
252 254 258 265 269 270 272 281 289 288 272 237 223 222 232 231 247 257 273 279 282 293 293 289 291 292 292 309 321 206 295 326 53 89 87 95 97 99 101 101 103 104 103 100
252 252 253 262 263 266 271 280 282 291 268 232 221 218 233 240 238 248 259 267 281 291 286 282 285 285 292 308 312 186 199 177 122 131 128 123 116 112 110 109 108 106 106 95
Height
10872 10873 10873 10873 10872 10872 10872 10871 10870 10870 10871 10871 10865 10866 10862 10864 10863 10858 10856 10854 10851 10848 10844 10842 10837 10835 10832 10826 10820 10813 10808 10803 10798 10793 10789 10784 10779 10775 10767 10760 10753 10746 10740 10732
10864 10864 10866 10864 10864 10864 10864 10863 10862 10862 10861 10863 10857 10858 10854 10850 10851 10851 10845 10843 10840 10836 10836 10832 10831 10823 10820 10818 10811 10803 10799 10793 10788 10782 10778 10773 10767 10759 10752 10744 10736 10728 10719 10711
10856 10858 10857 10854 10856 10855 10854 10854 10853 10851 10848 10851 10846 10849 10843 10840 10837 10840 10835 10831 10827 10826 10822 10819 10819 10817 10809 10800 10796 10790 10785 10781 10776 10768 10765 10759 10753 10745 10737 10729 10721 10712 10702 10692
10846 10847 10850 10845 10846 10845 10844 10845 10843 10839 10837 10839 10839 10838 10831 10828 10828 10827 10826 10818 10815 10812 10808 10805 10805 10806 10801 10790 10781 10778 10772 10768 10763 10756 10752 10745 10738 10731 10722 10715 10705 10695 10683 10671
10833 10836 10840 10834 10834 10836 10831 10836 10832 10828 10828 10829 10825 10822 10822 10814 10817 10818 10819 10807 10805 10800 10794 10790 10787 10789 10787 10783 10772 10761 10758 10753 10750 10745 10737 10729 10722 10714 10705 10696 10686 10675 10661 10647
10820 10825 10825 10823 10824 10823 10821 10823 10821 10820 10817 10822 10811 10809 10813 10803 10813 10803 10801 10799 10793 10788 10781 10776 10775 10774 10766 10764 10758 10753 10747 10741 10736 10729 10722 10712 10705 10696 10686 10676 10665 10652 10638 10625
10807 10811 10814 10811 10812 10811 10808 10811 10807 10809 10806 10807 10800 10802 10799 10794 10800 10787 10789 10785 10785 10779 10770 10762 10763 10760 10754 10749 10743 10739 10731 10727 10721 10712 10703 10696 10688 10678 10667 10656 10643 10631 10619 10607
10796 10797 10799 10802 10801 10796 10800 10795 10796 10794 10794 10789 10792 10785 10784 10783 10785 10776 10775 10773 10772 10767 10757 10757 10750 10746 10743 10733 10729 10725 10722 10715 10707 10698 10690 10681 10671 10660 10648 10636 10622 10610 10600 10589
10782 10784 10784 10790 10795 10782 10781 10787 10777 10781 10784 10778 10774 10770 10765 10774 10774 10766 10760 10756 10757 10754 10751 10743 10739 10735 10732 10726 10718 10711 10705 10700 10693 10684 10675 10665 10654 10642 10630 10617 10604 10592 10580 10570
10768 10768 10771 10770 10780 10778 10765 10764 10766 10767 10767 10767 10764 10752 10750 10752 10754 10755 10751 10743 10742 10740 10743 10730 10726 10720 10718 10713 10711 10701 10692 10685 10678 10669 10659 10649 10638 10626 10612 10599 10588 10575 10562 10553
10758 10754 10756 10752 10765 10763 10754 10751 10745 10747 10750 10750 10750 10742 10741 10730 10734 10737 10737 10730 10732 10728 10729 10724 10718 10706 10703 10699 10695 10690 10681 10672 10664 10655 10645 10634 10621 10607 10593 10582 10570 10558 10548 10538
10734 10742 10746 10737 10742 10745 10743 10735 10730 10729 10731 10729 10740 10739 10732 10720 10722 10721 10720 10711 10724 10720 10712 10712 10709 10704 10696 10689 10682 10677 10669 10660 10651 10641 10630 10618 10604 10590 10578 10567 10556 10546 10535 10525
10717 10723 10728 10728 10726 10722 10720 10721 10714 10715 10715 10719 10710 10731 10709 10716 10715 10707 10706 10703 10708 10703 10700 10699 10696 10691 10685 10678 10672 10664 10657 10647 10637 10626 10615 10601 10588 10576 10565 10555 10545 10534 10523 10514
10700 10704 10707 10713 10709 10704 10697 10709 10705 10695 10700 10698 10699 10701 10698 10704 10702 10702 10698 10690 10696 10693 10688 10688 10686 10680 10674 10667 10660 10653 10644 10634 10623 10612 10600 10587 10576 10565 10556 10546 10535 10524 10515 10507
10687 10688 10685 10684 10688 10687 10688 10694 10692 10686 10684 10680 10685 10684 10686 10690 10690 10696 10697 10688 10686 10683 10678 10673 10672 10668 10663 10656 10649 10641 10632 10621 10611 10600 10588 10576 10566 10558 10548 10538 10527 10518 10511 10504
10667 10668 10667 10670 10668 10671 10677 10670 10667 10670 10669 10674 10672 10673 10682 10677 10680 10682 10684 10683 10680 10672 10671 10667 10662 10657 10651 10645 10638 10630 10619 10608 10598 10588 10578 10568 10561 10551 10541 10533 10523 10515 10508 10501
10647 10652 10648 10653 10651 10657 10660 10648 10652 10654 10659 10663 10662 10663 10665 10664 10663 10668 10669 10670 10664 10663 10661 10658 10653 10647 10642 10635 10627 10618 10607 10596 10588 10580 10570 10564 10554 10546 10536 10527 10519 10513 10506 10500
10632 10634 10636 10637 10638 10646 10635 10634 10637 10641 10646 10648 10648 10650 10654 10653 10655 10652 10657 10655 10652 10653 10650 10647 10643 10637 10631 10624 10616 10607 10596 10588 10582 10573 10566 10558 10548 10540 10532 10523 10515 10509 10505 10502
10617 10619 10621 10624 10626 10630 10624 10623 10628 10630 10632 10627 10628 10634 10632 10647 10648 10643 10644 10642 10644 10643 10641 10637 10632 10627 10620 10613 10606 10596 10589 10583 10575 10568 10561 10554 10545 10537 10528 10519 10512 10508 10506 10506
10602 10605 10606 10609 10612 10613 10606 10618 10614 10614 10618 10607 10618 10625 10623 10629 10626 10636 10628 10633 10633 10633 10630 10627 10622 10616 10610 10604 10596 10589 10584 10577 10571 10564 10557 10550 10542 10535 10526 10517 10511 10508 10511 10512
10587 10591 10592 10595 10598 10600 10598 10602 10603 10599 10603 10600 10609 10622 10618 10615 10612 10622 10620 10623 10624 10623 10619 10617 10612 10605 10601 10595 10589 10584 10578 10573 10568 10561 10555 10548 10540 10533 10527 10519 10515 10515 10517 10517
10574 10575 10578 10580 10584 10589 10589 10587 10590 10587 10591 10597 10604 10608 10611 10604 10605 10611 10613 10614 10614 10613 10610 10607 10601 10596 10594 10588 10583 10579 10574 10571 10565 10560 10554 10547 10540 10535 10531 10528 10526 10525 10524 10525
10556 10557 10564 10570 10569 10577 10578 10577 10576 10573 10580 10581 10587 10597 10600 10605 10600 10598 10602 10603 10604 10604 10602 10597 10592 10590 10586 10582 10578 10574 10572 10569 10564 10560 10555 10549 10544 10541 10539 10537 10534 10533 10533 10534
10538 10550 10553 10556 10557 10564 10565 10563 10565 10561 10562 10565 10573 10583 10597 10595 10587 10588 10589 10591 10594 10595 10592 10588 10585 10583 10580 10577 10574 10571 10570 10567 10565 10562 10558 10554 10550 10548 10546 10545 10543 10541 10542 10542
10527 10537 10555 10539 10549 10551 10551 10553 10553 10549 10549 10552 10560 10569 10575 10583 10580 10579 10579 10583 10584 10585 10583 10580 10579 10577 10574 10572 10570 10568 10568 10567 10566 10564 10561 10559 10557 10555 10553 10553 10552 10551 10550 10549
10513 10522 10527 10529 10536 10537 10538 10540 10543 10542 10540 10544 10548 10557 10561 10568 10571 10572 10575 10575 10577 10577 10576 10574 10573 10572 10570 10568 10566 10566 10566 10567 10566 10565 10564 10563 10561 10561 10560 10559 10559 10558 10556 10555